Regional Weather Roundup
Issued by NWS

Home | Current Version | Previous Version | Text Only | Print | Product List | Glossary Off
Versions: 1 2 3 4 5 6 7 8 9 10 11 12 13 14 15 16 17 18 19 20 21 22 23 24 25 26 27 28 29 30 31 32 33 34 35 36 37 38 39 40 41 42 43 44 45 46 47 48 49 50

000
ASUS43 KIND 281809
RWRIN

WEATHER ROUNDUP FOR INDIANA
NATIONAL WEATHER SERVICE INDIANAPOLIS IN
200 PM EDT THU APR 28 2016

NOTE: "FAIR" INDICATES FEW OR NO CLOUDS BELOW 12,000 FEET WITH NO
SIGNIFICANT WEATHER AND/OR OBSTRUCTIONS TO VISIBILITY.

* - STATION DOES NOT REPORT WEATHER SUCH AS PRECIPITATION OR FOG.

+ - STATION NOT QUALITY CONTROLLED BY THE NATIONAL WEATHER SERVICE.
    USE DATA WITH CAUTION...ESPECIALLY DEWPOINT AND RELATIVE
    HUMIDITY OBSERVATIONS.

INZ001>003-010>013-019-020-281900-
NORTHWEST INDIANA

CITY           SKY/WX    TMP DP  RH WIND       PRES   REMARKS
GARY /AIRPORT/ CLOUDY    50  50 100 NE7       29.89S
KNOX *+        CLOUDY    54  41  62 SE6       29.87S
LA PORTE +     CLOUDY    54  48  80 E5        29.90R
6HR MIN TEMP:  45; 6HR MAX TEMP:  54;

MICHIGAN CITY+ CLOUDY    52  45  76 SE5       29.90R
MONTICELLO +   CLOUDY    55  49  78 E5        29.85F
                                      6HR PCP:  0.27;

RENSSELAER +   CLOUDY    54  50  87 E5        29.87S
VALPARAISO     CLOUDY    52  47  83 E6        29.88S
6HR MIN TEMP:  45; 6HR MAX TEMP:  52;


$$

LMZ046-743>745-281900-
SOUTHERN LAKE MICHIGAN

STATION/POSITION TIME  TEMP    WIND        PRES    WAVE
                       AIR SEA DIR/SP/G            HT
                 (UTC) (F)     (DEG/KT/KT) (MB)    (FT)
BURNS HARBOR     1709   50      90/  7/ 12 1012.5R
MICHIGAN CITY    1700   49     100/  5/  6   N/A

$$

INZ004-005-014>016-021>024-281900-
NORTH CENTRAL INDIANA

CITY           SKY/WX    TMP DP  RH WIND       PRES   REMARKS
ELKHART        CLOUDY    50  46  87 E14       29.90
GOSHEN         CLOUDY    51  45  79 E15       29.89F
6HR MIN TEMP:  42; 6HR MAX TEMP:  51; 6HR PCP:  0.03;

LOGANSPORT +     N/A    N/A N/A N/A MISG        N/A
PERU/GRISSOM   CLOUDY    56  51  85 E7        29.86R
6HR MIN TEMP:  45; 6HR MAX TEMP:  56;

ROCHESTER +    CLOUDY    55  50  82 E9        29.88S
SOUTH BEND     CLOUDY    51  44  77 E8        29.90R
6HR MIN TEMP:  42; 6HR MAX TEMP:  51; 6HR PCP: TRACE;

WARSAW +       CLOUDY    52  45  76 E10       29.89R

$$

INZ006>009-017-018-025>027-281900-
NORTHEAST INDIANA

CITY           SKY/WX    TMP DP  RH WIND       PRES   REMARKS
ANGOLA *+      CLOUDY    46  37  71 E10       29.91S
AUBURN +       CLOUDY    50  43  76 E12       29.91R
FORT WAYNE     CLOUDY    49  44  83 E16       29.90R
6HR MIN TEMP:  43; 6HR MAX TEMP:  50; 6HR PCP:  0.11;

HUNTINGTON +   CLOUDY   N/A N/A N/A E9        29.88S
                                      6HR PCP:  0.01;


$$

INZ028-029-035-036-043>045-051>053-281900-
WEST CENTRAL INDIANA

CITY           SKY/WX    TMP DP  RH WIND       PRES   REMARKS
CRAWFORDSVL +  LGT RAIN  65  61  88 NW14      29.82S
6HR MIN TEMP:  49; 6HR MAX TEMP:  68;

GREENCASTLE +  PTSUNNY   72  63  73 W8        29.81F
LAFAYETTE      CLOUDY    58  52  80 NE8       29.84F
6HR MIN TEMP:  47; 6HR MAX TEMP:  58;

TERRE HAUTE    PTSUNNY   71  56  58 SW12      29.82S
6HR MIN TEMP:  57; 6HR MAX TEMP:  71; 6HR PCP:  0.02;


$$

INZ030>032-037>040-046>048-054>057-064-065-281900-
CENTRAL INDIANA

CITY           SKY/WX    TMP DP  RH WIND       PRES   REMARKS
ANDERSON       CLOUDY    66  57  72 S3        29.84S
CP ATTERBURY + MOSUNNY   73  61  64 SW10      29.82S
COLUMBUS       PTSUNNY   72  64  78 SW13      29.82F
FISHERS *+     CLOUDY    70  63  78 CALM      29.81
FRANKFORT +      N/A     60  60  97 NE6       29.85F
6HR MIN TEMP:  47; 6HR MAX TEMP:  61;

GREENWOOD *+   PTSUNNY   72  61  68 SW7       29.82S
INDIANAPOLIS   PTSUNNY   73  59  61 SW12      29.79F
6HR MIN TEMP:  51; 6HR MAX TEMP:  73;

-EAGLE CREEK   CLOUDY    72  59  63 VRB7      29.80F
6HR MIN TEMP:  50; 6HR MAX TEMP:  72;

KOKOMO *+      CLOUDY    55  48  76 NE7       29.87R
6HR MIN TEMP:  45; 6HR MAX TEMP:  55;

MARION +       CLOUDY    57  51  81 E8G18     29.86R
SHELBYVILLE    PTSUNNY   75  62  64 SW12      29.81S
6HR MIN TEMP:  56; 6HR MAX TEMP:  75; 6HR PCP: TRACE;

ZIONSVILLE +   CLOUDY    66  58  75 CALM      29.83F
6HR MIN TEMP:  46; 6HR MAX TEMP:  66; 6HR PCP:  0.01;


$$

INZ033-034-041-042-049-050-058-059-281900-
EAST CENTRAL INDIANA

CITY           SKY/WX    TMP DP  RH WIND       PRES   REMARKS
MUNCIE         CLOUDY    65  56  72 E9        29.84S
6HR MIN TEMP:  46; 6HR MAX TEMP:  65; 6HR PCP:  0.10;


$$

INZ060-061-067>069-081>083-085>088-281900-
SOUTHWEST INDIANA

CITY           SKY/WX    TMP DP  RH WIND       PRES   REMARKS
EVANSVILLE     SUNNY     74  50  42 W13       29.86S
6HR MIN TEMP:  60; 6HR MAX TEMP:  74;

HUNTINGBURG *+ MOSUNNY   73  57  56 W13       29.86R
6HR MIN TEMP:  63; 6HR MAX TEMP:  73;

WASHINGTON +   MOSUNNY   73  53  50 W14G22    29.84R
6HR MIN TEMP:  62; 6HR MAX TEMP:  73;


$$

INZ062-063-066-070>080-084-089>092-281900-
SOUTH CENTRAL AND SOUTHEAST INDIANA

CITY           SKY/WX    TMP DP  RH WIND       PRES   REMARKS
BEDFORD +      MOSUNNY   73  66  78 SW9       29.82F
BLOOMINGTON    MOSUNNY   73  57  57 SW14G23   29.81F
6HR MIN TEMP:  62; 6HR MAX TEMP:  74;

MADISON *+     MOSUNNY   73  59  60 SW13G18   29.85F
NORTH VERNON + MOSUNNY   73  70  88 SW6       29.83F
SEYMOUR +      MOSUNNY   75  63  64 SW13      29.82F

$$





USA.gov is the U.S. government's official web portal to all federal, state and local government web resources and services.